User: anonymous   Login
Location: Iwkowa
(49.8210°N, 20.5761°E)
Time: 20:46:51
(UTC+02:00)
Language:

ISS - Orbit

View from above orbital plane
View from above orbital plane
View from above satellite
View from above satellite

Ground track
Ground track

The orbit data is extracted from the following two-line orbital elements,

1 25544U 98067A   20217.00715425  .00016717  00000-0  10270-3 0  9047
2 25544  51.6435 111.7924 0000618 342.6189  17.4932 15.49123437 39422
Epoch (UTC): 04 August 2020 00:10:18
Eccentricity: 0.0000618
inclination: 51.6435°
perigee height: 419 km
apogee height: 420 km
right ascension of ascending node: 111.7924°
argument of perigee: 342.6189°
revolutions per day: 15.49123437
mean anomaly at epoch: 17.4932°
orbit number at epoch: 3942

The dashed part of the orbit path shows where the satellite is in the earth's shadow,  

DLR